[[{"header":{"parameterUnit":"m.s-1","parameterCategory":1,"la1":30.2991,"la2":30.254,"lo1":-89.0895,"lo2":-89.0444,"dy":0.0017,"dx":0.0017,"nx":28,"ny":28,"refTime":"2024-06-06T21:00:00:Z","depth":0,"parameterNumber":2,"parameterNumberName":"U-component_of_WINDS"},"data":[0,0,0,0,0,0,0,0,0,0,0,0,0,0,0,0,0,0,0,0,0,0,0,0,0,0,0,0,0,0,0,0,0,0,0,0,0,0,0,0,0,0,0,0,0,0,0,0,0,0,0,0,0,0,0,0,0,0,-0.9819,-0.9818,0,-0.9787,-0.9787,-0.9786,-0.9763,-0.9763,-0.9763,-0.9763,-0.973,-0.973,-0.9729,0,0,0,0,0,0,0,0,0,0,0,0,0,-0.9858,-0.9858,-0.9819,-0.9818,-0.9818,-0.9787,-0.9787,-0.9786,-0.9763,-0.9763,-0.9763,-0.9763,-0.9731,-0.973,-0.9729,0,0,0,0,0,0,0,0,0,0,0,0,0,-0.9835,-0.9858,-0.9819,-0.9803,-0.9801,-0.9787,-0.9787,-0.9786,-0.9763,-0.9763,-0.9763,-0.9763,-0.9731,-0.973,-0.9729,-0.9728,0,0,-0.9726,-0.9725,0,0,0,0,0,0,0,0,-0.9837,-0.9834,-0.9806,-0.9804,-0.9802,-0.9779,-0.9789,-0.9767,-0.9764,-0.9778,-0.9763,-0.9762,-0.9747,-0.9744,-0.9739,-0.9727,-0.9725,-0.9726,-0.9725,-0.9724,-0.9724,0,0,0,0,0,0,0,-0.9838,-0.9835,-0.9806,-0.9805,-0.9803,-0.9797,-0.9793,-0.9784,-0.9764,-0.9776,-0.9775,-0.9771,-0.9746,-0.974,-0.9738,-0.9725,-0.9726,-0.9725,-0.9724,-0.9724,-0.9709,-0.9709,0,0,0,0,0,0,-0.9842,-0.9837,-0.9807,-0.9805,-0.9819,-0.9796,-0.9792,-0.9787,-0.9764,-0.9761,-0.9772,-0.977,-0.9742,-0.9739,-0.9737,-0.9734,-0.9724,-0.9724,-0.9723,-0.9709,-0.9709,-0.9709,0,0,0,0,0,0,-0.9843,-0.984,-0.9808,-0.982,-0.9816,-0.9796,-0.979,-0.9786,-0.9781,-0.9761,-0.9757,-0.977,-0.9742,-0.9738,-0.973,-0.9732,-0.9723,-0.9722,-0.9708,-0.9709,-0.9709,-0.9728,0,0,0,0,0,0,-0.9845,-0.9841,-0.984,-0.9821,-0.9815,-0.9803,-0.979,-0.9786,-0.9779,-0.9777,-0.9758,-0.9754,-0.9741,-0.9732,-0.9729,-0.9731,-0.9721,-0.9708,-0.9709,-0.9709,-0.9727,-0.9729,-0.9731,0,0,0,0,0,-0.9846,-0.9847,-0.9841,-0.9837,-0.9815,-0.9803,-0.98,-0.9785,-0.9779,-0.9778,-0.9765,-0.9755,-0.9733,-0.9731,-0.9728,-0.9729,-0.9708,-0.9708,-0.9709,-0.9726,-0.9729,-0.973,0,0,0,0,0,0,-0.9868,-0.9844,-0.9837,-0.9832,-0.9819,-0.9799,-0.9798,-0.9788,-0.9777,-0.9776,-0.9757,-0.9753,-0.9747,-0.9737,-0.9736,-0.9727,-0.9719,-0.9719,-0.9733,-0.9735,-0.9737,-0.9739,-0.972,0,0,0,0,0,-0.9872,-0.9865,-0.9844,-0.9842,-0.9836,-0.9818,-0.9812,-0.9802,-0.9788,-0.9783,-0.9769,-0.9757,-0.9747,-0.9741,-0.973,-0.9726,-0.9721,-0.9725,-0.9727,-0.9728,-0.9728,-0.9724,-0.9725,-0.9711,-0.9711,-0.9711,0,0,-0.9881,-0.9867,-0.9863,-0.9846,-0.9835,-0.9827,-0.9814,-0.9806,-0.98,-0.9782,-0.9773,-0.9763,-0.9747,-0.9741,-0.9737,-0.9732,-0.9731,-0.9729,-0.973,-0.9729,-0.9724,-0.9726,-0.9727,-0.9711,-0.9711,-0.9711,0,0,-0.9892,-0.9881,-0.9877,-0.9867,-0.9851,-0.9839,-0.9838,-0.9819,-0.9811,-0.9802,-0.9788,-0.978,-0.9763,-0.9752,-0.9745,-0.9751,-0.9741,-0.9748,-0.9757,-0.9753,-0.9754,-0.9755,-0.9756,-0.9757,-0.9749,-0.9749,-0.9749,0,-0.9905,-0.9892,-0.9877,-0.9869,-0.9862,-0.9845,-0.984,-0.9831,-0.9812,-0.9807,-0.9802,-0.978,-0.9769,-0.9759,-0.976,-0.9755,-0.9752,-0.975,-0.9755,-0.9756,-0.9757,-0.9758,-0.9758,-0.975,-0.9749,-0.9749,-0.9749,0,-0.9908,-0.99,-0.9899,-0.9881,-0.9873,-0.9867,-0.985,-0.9844,-0.9834,-0.9822,-0.9812,-0.9798,-0.9784,-0.9781,-0.9771,-0.9769,-0.9766,-0.9759,-0.975,-0.9759,-0.976,-0.976,-0.9751,-0.9751,-0.975,-0.975,0,0,-0.9932,-0.9905,-0.9905,-0.9896,-0.9877,-0.987,-0.9863,-0.9849,-0.9844,-0.9832,-0.9825,-0.9811,-0.9803,-0.9794,-0.9783,-0.978,-0.9784,-0.9772,-0.9772,-0.9774,-0.978,-0.9785,-0.9786,-0.9778,-0.9778,-0.9778,-0.9781,0,-0.994,-0.9927,-0.9912,-0.9903,-0.9895,-0.9878,-0.9872,-0.9859,-0.9848,-0.9839,-0.9827,-0.9816,-0.9808,-0.9802,-0.9798,-0.9785,-0.9785,-0.9784,-0.977,-0.977,-0.9774,-0.9786,-0.9792,-0.9796,-0.9781,-0.9781,-0.9781,0,-0.9947,-0.9935,-0.9926,-0.9906,-0.9902,-0.9897,-0.9882,-0.9874,-0.9859,-0.9851,-0.9841,-0.9829,-0.982,-0.9813,-0.98,-0.98,-0.9793,-0.9786,-0.9786,-0.9783,-0.9776,-0.9783,-0.9797,-0.9797,-0.9782,-0.9782,-0.9782,0,-0.9964,-0.9946,-0.9937,-0.9931,-0.9908,-0.9905,-0.9895,-0.988,-0.9872,-0.9859,-0.9854,-0.9841,-0.9833,-0.9823,-0.9807,-0.9804,-0.9796,-0.9788,-0.9788,-0.9788,-0.9787,-0.9787,-0.9798,-0.9784,-0.9784,-0.9784,-0.9784,0,-0.9973,-0.9968,-0.9945,-0.994,-0.9933,-0.9916,-0.991,-0.9899,-0.9885,-0.9877,-0.9862,-0.9855,-0.9835,-0.9825,-0.9813,-0.9804,-0.9801,-0.9793,-0.979,-0.9794,-0.9795,-0.9789,-0.9788,-0.9784,-0.9784,-0.9784,-0.9784,0,-0.9991,-0.9975,-0.9965,-0.9944,-0.9939,-0.9935,-0.9917,-0.9911,-0.9899,-0.9889,-0.9886,-0.9866,-0.9854,-0.9838,-0.982,-0.9812,-0.9804,-0.9799,-0.9809,-0.9807,-0.9808,-0.9807,-0.9815,-0.9815,-0.9802,-0.9802,-0.9802,0,-0.9997,-0.9993,-0.9972,-0.9965,-0.9956,-0.9946,-0.9938,-0.9921,-0.9913,-0.9895,-0.9891,-0.9878,-0.9866,-0.9847,-0.9831,-0.9817,-0.9812,-0.9815,-0.981,-0.9814,-0.9811,-0.9811,-0.981,-0.9817,-0.9817,-0.9817,-0.9817,0,-1.001,-1.0003,-0.9992,-0.9978,-0.9969,-0.9957,-0.9945,-0.994,-0.992,-0.9912,-0.9899,-0.989,-0.9872,-0.9858,-0.9843,-0.9832,-0.9821,-0.9819,-0.9818,-0.9822,-0.9828,-0.9824,-0.9812,-0.9819,-0.9819,-0.9819,-0.9819,-0.9819,-1.0022,-1.0017,-1.0001,-0.9989,-0.9978,-0.9966,-0.9959,-0.9946,-0.9935,-0.9919,-0.991,-0.9897,-0.9881,-0.9859,-0.9849,-0.9838,-0.9834,-0.9833,-0.9833,-0.9833,-0.9834,-0.983,-0.9835,-0.9835,-0.9835,-0.9835,-0.9835,0,-1.0033,-1.0022,-1.0011,-0.9994,-0.9985,-0.9975,-0.9961,-0.9953,-0.9942,-0.9929,-0.9917,-0.9902,-0.9889,-0.9872,-0.9857,-0.9852,-0.9846,-0.9848,-0.9848,-0.9846,-0.9839,-0.984,-0.9853,-0.9853,-0.9853,-0.9853,-0.9853,-0.9853,-1.0037,-1.0028,-1.0018,-1.0003,-0.9992,-0.9979,-0.9972,-0.9961,-0.995,-0.9934,-0.9922,-0.9912,-0.9896,-0.988,-0.9867,-0.9862,-0.9857,-0.9861,-0.9855,-0.9848,-0.9847,-0.9845,-0.9846,-0.986,-0.986,-0.9863,-0.9863,-0.9863]},{"header":{"parameterUnit":"m.s-1","parameterCategory":1,"la1":30.2991,"la2":30.254,"lo1":-89.0895,"lo2":-89.0444,"dy":0.0017,"dx":0.0017,"nx":28,"ny":28,"refTime":"2024-06-06T21:00:00:Z","depth":0,"parameterNumber":3,"parameterNumberName":"V-component_of_WINDS"},"data":[0,0,0,0,0,0,0,0,0,0,0,0,0,0,0,0,0,0,0,0,0,0,0,0,0,0,0,0,0,0,0,0,0,0,0,0,0,0,0,0,0,0,0,0,0,0,0,0,0,0,0,0,0,0,0,0,0,0,2.1444,2.1445,0,2.1488,2.1488,2.1489,2.1556,2.1558,2.1559,2.156,2.1601,2.1601,2.1601,0,0,0,0,0,0,0,0,0,0,0,0,0,2.1418,2.1418,2.1444,2.1445,2.1446,2.1488,2.1488,2.1489,2.1556,2.1558,2.1559,2.156,2.1601,2.1601,2.1601,0,0,0,0,0,0,0,0,0,0,0,0,0,2.1442,2.1418,2.1444,2.1484,2.1488,2.1488,2.1488,2.1489,2.1556,2.1558,2.1559,2.1561,2.1601,2.1601,2.1601,2.1564,0,0,2.1601,2.1601,0,0,0,0,0,0,0,0,2.1441,2.1443,2.1478,2.1482,2.1486,2.1519,2.1494,2.1514,2.1555,2.153,2.156,2.1562,2.1572,2.1574,2.1578,2.1565,2.1567,2.1601,2.1601,2.1601,2.1601,0,0,0,0,0,0,0,2.1439,2.1442,2.1462,2.1478,2.1483,2.1499,2.1505,2.1498,2.154,2.1532,2.1537,2.1542,2.1574,2.1578,2.158,2.1568,2.1601,2.1601,2.16,2.16,2.1528,2.1526,0,0,0,0,0,0,2.1432,2.144,2.146,2.1463,2.1468,2.1498,2.1504,2.1506,2.154,2.1547,2.154,2.1545,2.1577,2.158,2.1581,2.1541,2.1601,2.16,2.16,2.153,2.1527,2.1525,0,0,0,0,0,0,2.1431,2.1433,2.1458,2.1453,2.1457,2.1497,2.1498,2.1506,2.151,2.1546,2.1554,2.1536,2.1579,2.1581,2.1568,2.1543,2.16,2.16,2.1532,2.1529,2.1526,2.1458,0,0,0,0,0,0,2.143,2.1432,2.1419,2.1452,2.1457,2.1445,2.1497,2.1506,2.151,2.1516,2.1545,2.1551,2.1581,2.1568,2.1568,2.1544,2.16,2.1534,2.153,2.1527,2.1463,2.1454,2.1445,0,0,0,0,0,2.1429,2.1397,2.1418,2.142,2.1441,2.1443,2.1446,2.1481,2.1508,2.1494,2.1518,2.155,2.1546,2.1566,2.1567,2.1542,2.1536,2.1531,2.1527,2.1467,2.1455,2.1446,0,0,0,0,0,0,2.1359,2.1402,2.1426,2.1404,2.1419,2.1454,2.1439,2.1468,2.1476,2.1481,2.1524,2.153,2.1511,2.1525,2.1547,2.1508,2.1546,2.1541,2.15,2.1489,2.148,2.1477,2.16,0,0,0,0,0,2.1341,2.1339,2.1377,2.1354,2.1361,2.1398,2.14,2.1427,2.1444,2.145,2.1473,2.1488,2.149,2.149,2.1494,2.1466,2.1473,2.1449,2.144,2.1433,2.1429,2.1415,2.1405,2.1511,2.1511,2.1511,0,0,2.1304,2.1327,2.1324,2.1341,2.1356,2.1353,2.1403,2.1398,2.1396,2.1449,2.1438,2.1455,2.1475,2.1454,2.1445,2.1465,2.1401,2.1428,2.1421,2.1421,2.141,2.14,2.1391,2.1508,2.1509,2.1509,0,0,2.1235,2.1252,2.1236,2.125,2.1273,2.1299,2.1294,2.1325,2.1339,2.1329,2.1369,2.1367,2.137,2.1382,2.1389,2.1326,2.1356,2.1326,2.128,2.1266,2.1258,2.1251,2.1228,2.122,2.1321,2.1321,2.1321,0,2.1185,2.1183,2.1223,2.1216,2.1222,2.1272,2.1255,2.1267,2.1289,2.1292,2.1314,2.132,2.1336,2.1319,2.1304,2.1307,2.1304,2.1323,2.1256,2.1249,2.1243,2.1222,2.1214,2.1317,2.1318,2.1318,2.1319,0,2.1122,2.112,2.1103,2.1125,2.113,2.1118,2.1155,2.1155,2.1181,2.1204,2.1193,2.1215,2.1224,2.1222,2.1247,2.1209,2.122,2.1248,2.1287,2.1229,2.121,2.1202,2.1312,2.1313,2.1314,2.1315,0,0,2.1009,2.1054,2.1048,2.1059,2.1088,2.1087,2.1077,2.1087,2.1086,2.11,2.1093,2.1095,2.1121,2.1129,2.1155,2.1143,2.1092,2.1173,2.1174,2.1158,2.1052,2.1031,2.1021,2.1113,2.1111,2.111,2.1051,0,2.0946,2.0933,2.0969,2.0946,2.0945,2.0992,2.0984,2.1,2.1021,2.1023,2.1046,2.1047,2.1082,2.1087,2.1077,2.1101,2.1072,2.1105,2.1106,2.1105,2.11,2.1011,2.0989,2.0931,2.1044,2.1042,2.1042,0,2.087,2.0882,2.0859,2.0891,2.0892,2.0884,2.0897,2.0898,2.0918,2.0934,2.0943,2.0974,2.0966,2.1004,2.0993,2.1015,2.1018,2.1029,2.1028,2.1029,2.107,2.101,2.0914,2.0905,2.103,2.1031,2.1032,0,2.0791,2.0801,2.0789,2.0797,2.0833,2.0826,2.0841,2.0863,2.0867,2.0878,2.0882,2.0891,2.0896,2.0903,2.0936,2.096,2.0921,2.0961,2.0934,2.0934,2.0924,2.0924,2.0827,2.0925,2.0925,2.0925,2.0926,0,2.0717,2.0701,2.0754,2.0746,2.073,2.0772,2.0755,2.0774,2.0793,2.079,2.0831,2.0827,2.0872,2.0872,2.0898,2.0886,2.0887,2.09,2.0907,2.0897,2.0895,2.0899,2.0904,2.0923,2.0924,2.0924,2.0924,0,2.0625,2.066,2.065,2.0686,2.0695,2.0681,2.0712,2.0706,2.073,2.0726,2.0727,2.0765,2.0768,2.0802,2.0812,2.0829,2.0807,2.0821,2.08,2.0805,2.0777,2.0779,2.0678,2.0667,2.0772,2.0771,2.077,0,2.0576,2.0565,2.06,2.0602,2.0615,2.0617,2.0622,2.0662,2.0666,2.0688,2.068,2.0687,2.0694,2.0697,2.0725,2.0733,2.0748,2.0712,2.0749,2.0739,2.0748,2.0748,2.0747,2.0704,2.0703,2.0701,2.0701,0,2.0484,2.0502,2.0509,2.0521,2.0527,2.0538,2.0552,2.0551,2.0595,2.0597,2.0602,2.0608,2.0619,2.0625,2.0638,2.0653,2.0684,2.0689,2.0683,2.0672,2.0661,2.0667,2.0779,2.0691,2.0692,2.0693,2.0693,2.0693,2.0413,2.0406,2.043,2.0436,2.0451,2.0463,2.046,2.0485,2.0489,2.0503,2.0526,2.0527,2.0548,2.0569,2.0581,2.0582,2.0601,2.0592,2.059,2.0587,2.0582,2.0661,2.0584,2.0585,2.0585,2.0585,2.0586,0,2.0324,2.0342,2.0347,2.0366,2.0371,2.0401,2.0419,2.042,2.0421,2.0438,2.0446,2.0451,2.0457,2.0486,2.0495,2.0491,2.0505,2.0492,2.0493,2.0496,2.0565,2.0569,2.048,2.048,2.048,2.048,2.048,2.048,2.0278,2.0269,2.0289,2.0288,2.0306,2.0308,2.0316,2.0327,2.0342,2.0346,2.0352,2.0371,2.0393,2.0405,2.0412,2.042,2.0422,2.0404,2.0416,2.048,2.0491,2.05,2.0504,2.0403,2.0403,2.0348,2.0347,2.0347]}]]